This is the latest recevied weather packets stored in our database for station/object IW2DGQ-3. If no packets are shown the sender has not sent any weather packets the latest 10 day(s).
| Time | Temp. | Humidity | Pressure | Rain* | Wind** | Luminosity | Snow |
|---|---|---|---|---|---|---|---|
| 1777679442 | 10° C | 42% | 1027.4 hPa | - | - | - | - |
| 1777678238 | 10.56° C | 41% | 1027.4 hPa | - | - | - | - |
| 1777677035 | 10.56° C | 41% | 1027.3 hPa | - | - | - | - |
| 1777675831 | 11.11° C | 41% | 1027.4 hPa | - | - | - | - |
| 1777673424 | 11.11° C | 39% | 1027.2 hPa | - | - | - | - |
| 1777672221 | 11.67° C | 39% | 1027 hPa | - | - | - | - |
| 1777671017 | 11.67° C | 39% | 1027 hPa | - | - | - | - |
| 1777669814 | 12.22° C | 38% | 1026.9 hPa | - | - | - | - |
| 1777668610 | 12.22° C | 38% | 1026.8 hPa | - | - | - | - |
| 1777667407 | 12.78° C | 38% | 1026.8 hPa | - | - | - | - |
| 1777666203 | 13.33° C | 37% | 1026.7 hPa | - | - | - | - |
| 1777665000 | 13.33° C | 36% | 1026.8 hPa | - | - | - | - |
| 1777663796 | 13.89° C | 35% | 1026.5 hPa | - | - | - | - |
| 1777662593 | 13.89° C | 33% | 1026.4 hPa | - | - | - | - |
| 1777661389 | 15° C | 32% | 1026.2 hPa | - | - | - | - |
| 1777660185 | 15.56° C | 30% | 1026.1 hPa | - | - | - | - |
| 1777658982 | 16.67° C | 28% | 1026 hPa | - | - | - | - |
| 1777657779 | 17.78° C | 27% | 1025.9 hPa | - | - | - | - |
| 1777656575 | 18.33° C | 25% | 1025.9 hPa | - | - | - | - |
| 1777655372 | 18.89° C | 24% | 1025.8 hPa | - | - | - | - |
| 1777654168 | 20° C | 24% | 1025.9 hPa | - | - | - | - |
| 1777652965 | 20.56° C | 23% | 1026.1 hPa | - | - | - | - |
| 1777651761 | 20.56° C | 23% | 1026.2 hPa | - | - | - | - |
| 1777650558 | 21.11° C | 23% | 1026.2 hPa | - | - | - | - |
| 1777649354 | 21.67° C | 22% | 1026.4 hPa | - | - | - | - |
* Rain since midnight (hover to see other rain measurements)
** Current wind speed in m/s (hover to see current wind gust speed)